Weather Roundup
Issued by NWS

Home | Current Version | Previous Version | Graphics & Text | Print | Product List | Glossary Off
Versions: 1 2 3 4 5 6 7 8 9 10 11 12 13 14 15 16 17 18 19 20 21 22 23 24 25 26 27 28 29 30 31 32 33 34 35 36 37 38 39 40 41 42 43 44 45 46 47 48 49 50

035
NZUS93 KARX 200859
HRRWXR

CURRENT HOURLY OBSERVATIONS ACROSS
MUCH OF THE UPPER MISSISSIPPI VALLEY
NATIONAL WEATHER SERVICE LA CROSSE WI
300 AM CST SAT JAN 20 2018


...SOUTHEAST MINNESOTA...


CITY           SKY/WX    TMP DP  RH WIND       PRES   REMARKS
ROCHESTER      FAIR      31  29  92 NW8       29.76R WCI  23
ROCHESTER/MAYO FAIR      34  30  85 W5        29.77R WCI  30
WINONA         FAIR      28  27  93 CALM      29.76R
AUSTIN         FAIR      32  28  86 N3        29.77R
ALBERT LEA     FAIR      34  28  80 N6        29.77R WCI  29
DODGE CENTER   FAIR      28  28 100 NW5       29.76R WCI  23
PRESTON        FAIR      32  29  87 NW7       29.77R WCI  26
OWATONNA       FAIR      27  27 100 CALM      29.78R
FARIBAULT      FOG       25  25 100 CALM      29.79R VSB 1/2
$$

...ELSEWHERE IN MINNESOTA...


CITY           SKY/WX    TMP DP  RH WIND       PRES   REMARKS
MINNEAPOLIS    MOCLDY    30  29  96 SW6       29.78R WCI  24
INTNL FALLS    CLOUDY    35  29  78 W6        29.65R WCI  30
DULUTH         FAIR      32  28  85 NW7       29.68R WCI  26
RED WING       FAIR      25  23  93 CALM      29.78R FOG
REDWOOD FALLS  PTCLDY    31  27  85 W6        29.78R WCI  25
MANKATO        FAIR      31  29  92 N5        29.78R WCI  26
WORTHINGTON    CLOUDY    28  26  92 NW10      29.78R WCI  19
FAIRMONT       CLOUDY    31  28  89 N5        29.78R WCI  26
$$

...SOUTHWEST WISCONSIN...


CITY           SKY/WX    TMP DP  RH WIND       PRES   REMARKS
LA CROSSE      FAIR      29  26  89 CALM      29.78R
PRAIRIE DU CHI FAIR      30  25  84 CALM      29.79R
BOSCOBEL       FAIR      29  25  85 CALM      29.79R
LONE ROCK      FAIR      29  26  89 CALM      29.79R
PLATTEVILLE    FAIR      32  29  88 SW6       29.79R WCI  26
FORT MC COY    FAIR      24  24  99 CALM      29.77R
CAMP DOUGLAS   FAIR      26  26  99 CALM      29.75R
MAUSTON-NEW LI FAIR      30  28  90 CALM      29.75R
VIROQUA        FAIR      32  31  96 W6        29.76R WCI  26
WIS DELLS      FAIR      33  27  79 SW5       29.75R WCI  28
$$

...ELSEWHERE IN WISCONSIN...


CITY           SKY/WX    TMP DP  RH WIND       PRES   REMARKS
MILWAUKEE      MOCLDY    39  29  67 W9        29.76R WCI  33
MADISON        FAIR      33  27  78 SW3       29.78R
GREEN BAY      FAIR      32  26  78 CALM      29.72R
EAU CLAIRE     NOT AVBL
BLACK RVR FLS  FAIR      24  24 100 CALM      29.75R FOG
MEDFORD        FAIR      28  26  91 CALM      29.71R
WAUSAU         FAIR      32  27  81 W7        29.70R WCI  26
WIS RAPIDS     FAIR      27  24  89 CALM      29.75R
MARSHFIELD     FAIR      30  28  92 W6        29.72R WCI  24
RICE LAKE      FOG       21  20  97 CALM      29.75R VSB<1/4
$$

...NORTHEAST IOWA...


CITY           SKY/WX    TMP DP  RH WIND       PRES   REMARKS
WATERLOO       FAIR      30  27  88 CALM      29.79R
DUBUQUE        FAIR      30  26  85 SW3       29.79R
DECORAH        FAIR      34  30  86 CALM      29.76R
MASON CITY     CLOUDY    27  25  92 CALM      29.78R
CHARLES CITY   FAIR      32  32 100 W6        29.78R WCI  26
OELWEIN        FAIR      30  30 100 SW5       29.79R WCI  25
$$

...ELSEWHERE IN IOWA...


CITY           SKY/WX    TMP DP  RH WIND       PRES   REMARKS
DES MOINES     CLOUDY    32  26  78 S6        29.81R WCI  26
IOWA CITY      FAIR      35  26  69 SW3       29.84R
FORT DODGE     CLOUDY    27  25  92 CALM      29.79R
MARSHALLTOWN   CLOUDY    32  28  85 W5        29.79R WCI  27
CEDAR RAPIDS   FAIR      34  27  75 SW8       29.79R WCI  27
$$

...NORTHERN ILLINOIS...


CITY           SKY/WX    TMP DP  RH WIND       PRES   REMARKS
CHICAGO-OHARE  MOCLDY    37  27  67 SW12      29.81R WCI  29
CHICAGO-MIDWAY MOCLDY    38  28  67 SW10      29.83R WCI  31
MOLINE         FAIR      38  29  70 SW9       29.82R WCI  31
ROCKFORD       FAIR      37  28  70 SW9       29.83R WCI  30
PEORIA         FAIR      33  26  75 S8        29.89R WCI  26
$$

NOTE: "FAIR" INDICATES FEW OR NO CLOUDS BELOW 12,000 FEET WITH NO
SIGNIFICANT WEATHER AND/OR OBSTRUCTIONS TO VISIBILITY. WIND
SPEEDS ARE IN MILES-PER-HOUR.




USA.gov is the U.S. government's official web portal to all federal, state and local government web resources and services.